GW4151 Weather Reports


time (UTC)temp
C
wind
direction
speed
KPH
gust
KPH
rain 1hr
cm
rain 24hr
cm
rain mn
cm
humidity
%
barometer
mb
20260503214312 14 232 9.7 20.9 0.00 0.00 0.00 57 988.5
20260503212809 13 207 3.2 16.1 0.00 0.00 0.00 63 988.5
20260503211307 12 148 4.8 14.5 0.00 0.00 0.00 66 988.4
20260503205805 12 220 6.4 11.3 0.00 0.00 0.00 66 988.8
20260503204302 11 140 3.2 9.7 0.00 0.00 0.00 67 988.9
20260503202759 11 187 3.2 24.1 0.00 0.00 0.00 68 989.1
20260503201258 11 147 4.8 17.7 0.00 0.00 0.00 72 989.5
20260503195755 10 65 9.7 22.5 0.00 0.00 0.00 75 990.2
20260503194250 9 129 9.7 22.5 0.00 0.00 0.00 78 990.1
20260503192750 10 257 8.0 27.4 0.00 0.00 0.00 78 990.5
20260503191245 11 186 19.3 40.2 0.00 0.00 0.00 65 990.7
20260503185742 12 273 24.1 35.4 0.00 0.00 0.00 61 991.0
20260503184241 13 203 16.1 27.4 0.00 0.00 0.00 58 990.7
20260503182738 15 218 22.5 29.0 0.00 0.00 0.00 54 990.6
20260503181235 15 248 25.7 37.0 0.00 0.00 0.00 51 990.6
20260503175732 15 210 20.9 30.6 0.00 0.00 0.00 52 990.9
20260503174230 15 265 9.7 27.4 0.00 0.00 0.00 53 990.9
20260503172729 15 228 8.0 20.9 0.00 0.00 0.00 52 991.1
20260503171226 14 272 16.1 27.4 0.00 0.00 0.00 53 991.3
20260503131139 10 242 14.5 22.5 0.00 0.00 0.00 58 992.9
20260503081047 5 190 0.0 3.2 0.00 0.00 0.00 73 993.0
20260503072539 5 122 1.6 6.4 0.00 0.00 0.00 66 993.2
20260503071036 5 174 3.2 6.4 0.00 0.00 0.00 64 993.3
20260503054019 6 187 4.8 14.5 0.00 0.00 0.00 54 994.2
20260503052517 5 175 6.4 12.9 0.00 0.00 0.00 54 994.6
20260503051012 5 178 3.2 9.7 0.00 0.00 0.00 54 994.7
20260503045509 5 181 1.6 11.3 0.00 0.00 0.00 54 994.7
20260503044006 5 151 6.4 11.3 0.00 0.00 0.00 53 994.9
20260503042501 5 169 4.8 9.7 0.00 0.00 0.00 56 994.8
20260503040958 5 194 3.2 4.8 0.00 0.00 0.00 56 995.2
20260503035455 5 187 3.2 4.8 0.00 0.00 0.00 57 995.4
20260503033953 5 167 1.6 11.3 0.00 0.00 0.00 53 995.5
20260503032452 5 176 1.6 4.8 0.00 0.00 0.00 56 995.5
20260503030949 5 134 3.2 4.8 0.00 0.00 0.00 57 995.6
20260503025445 5 173 3.2 4.8 0.00 0.00 0.00 57 995.8
20260503023942 5 212 3.2 4.8 0.00 0.00 0.00 59 996.1
20260503022437 5 205 3.2 6.4 0.00 0.00 0.00 60 996.1
20260503020933 5 187 0.0 6.4 0.00 0.00 0.00 61 996.1
20260503015430 5 193 3.2 4.8 0.00 0.00 0.00 60 996.2
20260503013927 5 208 3.2 4.8 0.00 0.00 0.00 60 996.0
20260503012425 5 235 3.2 6.4 0.00 0.00 0.00 58 996.1
20260503010921 6 197 0.0 4.8 0.00 0.00 0.00 56 996.1
20260503005418 6 169 0.0 4.8 0.00 0.00 0.00 54 996.1
20260503003914 6 206 6.4 11.3 0.00 0.00 0.00 51 996.3
20260503002412 7 237 3.2 11.3 0.00 0.00 0.00 50 996.2
20260503000908 8 238 6.4 9.7 0.00 0.00 0.00 47 996.4
20260502235405 8 254 3.2 9.7 0.00 0.00 0.00 46 996.5
20260502233901 8 135 3.2 6.4 0.00 0.00 0.00 46 996.3
20260502232356 9 226 6.4 9.7 0.00 0.00 0.00 44 996.4
20260502230855 9 313 3.2 6.4 0.00 0.00 0.00 44 996.5
20260502225352 9 230 3.2 6.4 0.00 0.00 0.00 40 996.6
20260502223848 9 172 3.2 11.3 0.00 0.00 0.00 41 996.6
20260502222347 9 273 6.4 11.3 0.00 0.00 0.00 40 996.6
20260502220842 9 245 9.7 14.5 0.00 0.00 0.00 39 996.6